STARLINK-4361, 53493

Orbit data source: Space-Track

STARLINK-4361, 53493 is a payload satellite owned by SpaceX/Seattle (US) in SSO that was launched on Fri, 12 Aug 2022 UTC via an FALCON 9 launch vehicle from the Air Force Western Test Range (AFWTR). Payload-class satellites include a variety of spacecraft equipped with specific instruments for various scientific and technological missions. These include communications satellites like Starlink; space stations such as the ISS; scientific satellites like the Hubble; Earth observation satellites from companies like Planet Labs, Umbra, and HawkEye 360; GPS; miniature CubeSats for education and research; and military/defense satellites.

Loading next visibility...
Identifier
53493, 2022-099AE
Orbit
SSO
Country
Flag of USUS
Related business
Manufacturer
SpaceX/Seattle
Mission
Partially operational Commercial Communications
Bus & Motor
STARLINK, Unknown motor
Mass
300 kg wet, ~275 kg dry
Launch date (UTC)
2022-08-12 (3 years ago)
Launch vehicle
FALCON 9
Launch site
Air Force Western Test Range (AFWTR)
Object type
Payload
Rocket body
Debris
Shape & HBR
Box + 1 Pan, 4.4 m
Radar Cross Section
13.562 m², Large (>1 m²)

Expand to show TLE details & history
Last TLE update: 13 hours ago

TLE from 13 hours ago
0 STARLINK-4361
1 53493U 22099AE  25259.08646998  .00020651  00000-0  13811-2 0  9999
2 53493  97.6550  19.4931 0001281  84.9847 275.1527 15.06980900169796
Epoch: 2025-09-16T02:04Z
TLE epoch observation values (Epoch: 2025-09-16T02:04:31.006Z)
Latitude
0.00003°
Longitude
-6.91791°
Altitude
548.418 km
Speed
7.588 km/s
True Right ascension
01h 17m 58s
True Declination
0° 00' 00"
Sunlit
Object was in full shadow at epoch
Visualization orbit readout
Latitude
Unknown
Longitude
Unknown
Altitude
Unknown
Speed
Unknown
Apparent Right ascension
Unknown
Apparent Declination
Unknown
Sunlit
N/A
Visualization observer readout
Local Sidereal Time
08:12:42
Azimuth
Unknown
Elevation
Unknown
Doppler factor
Unknown
Orbital elements
Apogee altitude
543.312 km
Perigee altitude
541.539 km
Semi-major axis
6,920.563 km
Eccentricity
0.00013
Inclination
97.655°
RAAN
19.4931°
Arg. of periapsis
84.9847°
True anomaly
275.13808°
Mean anomaly
275.1527°
Eccentric anomaly
275.14539°
Mean motion
3.76991 °/min
Orbital period
95.49 mins
BSTAR
0.0013811
Loading maneuver chart data...
Computing Atmospheric mass density...
Loading historical data...
Loading historical data...
Loading historical data...
Loading historical data...
Loading historical data...
Loading historical data...
Loading historical data...

Documentation

Showing up to 5 results
|